This is the latest recevied weather packets stored in our database for station/object DB8NZ-11. If no packets are shown the sender has not sent any weather packets the latest 10 day(s).
| Time | Temp. | Humidity | Pressure | Rain* | Wind** | Luminosity | Snow |
|---|---|---|---|---|---|---|---|
| 1777557675 | 21.67° C | 16% | 1031.9 hPa | - | - | - | - |
| 1777556774 | 21.67° C | 18% | 1032 hPa | - | - | - | - |
| 1777555874 | 21.67° C | 16% | 1032.3 hPa | - | - | - | - |
| 1777554974 | 21.11° C | 15% | 1032.4 hPa | - | - | - | - |
| 1777554074 | 21.67° C | 16% | 1032.7 hPa | - | - | - | - |
| 1777553174 | 21.11° C | 15% | 1032.9 hPa | - | - | - | - |
| 1777552274 | 21.67° C | 15% | 1032.9 hPa | - | - | - | - |
| 1777551374 | 22.22° C | 16% | 1033 hPa | - | - | - | - |
| 1777550474 | 21.11° C | 17% | 1033.2 hPa | - | - | - | - |
| 1777549574 | 21.67° C | 16% | 1033.4 hPa | - | - | - | - |
| 1777548674 | 20° C | 15% | 1033.6 hPa | - | - | - | - |
| 1777547774 | 20.56° C | 16% | 1033.6 hPa | - | - | - | - |
| 1777546874 | 20° C | 16% | 1033.7 hPa | - | - | - | - |
| 1777545973 | 19.44° C | 16% | 1033.9 hPa | - | - | - | - |
| 1777545073 | 19.44° C | 18% | 1034.1 hPa | - | - | - | - |
| 1777544173 | 20° C | 18% | 1034.2 hPa | - | - | - | - |
| 1777543273 | 19.44° C | 19% | 1034.3 hPa | - | - | - | - |
| 1777542373 | 19.44° C | 20% | 1034.3 hPa | - | - | - | - |
| 1777541473 | 18.89° C | 20% | 1034.3 hPa | - | - | - | - |
| 1777540573 | 18.89° C | 20% | 1034.5 hPa | - | - | - | - |
| 1777539673 | 18.89° C | 20% | 1034.6 hPa | - | - | - | - |
| 1777538773 | 17.78° C | 20% | 1034.8 hPa | - | - | - | - |
| 1777537873 | 19.44° C | 19% | 1034.8 hPa | - | - | - | - |
| 1777536973 | 18.89° C | 19% | 1034.9 hPa | - | - | - | - |
| 1777536073 | 20.56° C | 19% | 1034.9 hPa | - | - | - | - |
* Rain since midnight (hover to see other rain measurements)
** Current wind speed in m/s (hover to see current wind gust speed)